Regional Weather Roundup
Issued by NWS San Diego, CA

Home | Current Version | Previous Version | Text Only | Print | Product List | Glossary On
Versions: 1 2 3 4 5 6 7 8 9 10 11 12 13 14 15 16 17 18 19 20 21 22 23 24 25 26 27
000
ASUS46 KSGX 280811
RWRSGX

SAN DIEGO HOURLY WEATHER ROUNDUP
NATIONAL WEATHER SERVICE SAN DIEGO CA
1200 AM PST TUE FEB 28 2017

NOTE: "FAIR" INDICATES FEW OR NO CLOUDS BELOW 12,000 FEET WITH NO
SIGNIFICANT WEATHER AND/OR OBSTRUCTIONS TO VISIBILITY.

CAZ042-043-060-061-PZZ750-775-280900-

GREATER SAN DIEGO AREA

CITY           SKY/WX    TMP DP  RH WIND       PRES   REMARKS
SAN DIEGO AP   CLOUDY    55  50  83 W8        29.91R
POINT LOMA       N/A     51  49  93 W15         N/A
NATIONAL CITY    N/A     54  52  94 W1        29.91R
CHULA VISTA      N/A     53  52  98 W6        29.82R
BROWN FIELD    RAIN      53  53 100 W9        29.90R FOG
MIRAMAR MCAS   LGT RAIN  56  52  86 W8        29.89R VSB 1
MONTGOMERY FLD LGT RAIN  52  50  93 W8        29.89R

$$

NORTH SAN DIEGO COUNTY

CITY           SKY/WX    TMP DP  RH WIND       PRES   REMARKS
CAMP PENDLETON CLOUDY    53  51  93 CALM      29.88R
OCEANSIDE AP   CLOUDY    54  54 100 W6        29.88R
OCEANSIDE HBR    N/A     54  52  93 SE6       29.91R
VISTA            N/A     52  47  83 W2        29.86R
CARLSBAD       LGT RAIN  53  53 100 CALM      29.88R FOG
DEL MAR          N/A     52  52  99 W3        29.91R
LA JOLLA SCRIP   N/A     54  53  95 SW10      29.89R
FALLBROOK        N/A     52  52 100 SW1       29.87R
ESCONDIDO        N/A     52  51  97 W6        29.90R
SAN MARCOS       N/A     51  48  88 NW7       29.90R
POWAY            N/A     52  50  92 CALM      29.91R

$$

EAST SAN DIEGO COUNTY

CITY           SKY/WX    TMP DP  RH WIND       PRES   REMARKS
RAMONA         LGT RAIN  50  50 100 W17       29.86R FOG
SANTEE LAKES     N/A     52  51  95 SW3       29.89R
LA MESA          N/A     51  51  97 W3        29.83R
JAMUL            N/A     51  50  95 CALM      29.90R
DESCANSO N       N/A     44  43  95 W3        29.82S
MT. LAGUNA OBS   N/A     34  34  99 SW13      29.45S WCI  25

$$

ORANGE COUNTY AND THE LOS ANGELES BASIN

CITY           SKY/WX    TMP DP  RH WIND       PRES   REMARKS
JOHN WAYNE AP  PTCLDY    53  49  86 CALM      29.88R
LAGUNA BEACH     N/A    N/A N/A N/A NW3       29.83R
LAKE FOREST FR   N/A     49  46  91 CALM      29.78R
HUNTINGTON BCH   N/A     53  50  91 W1        29.89R
LOS ALAMITOS   FAIR      50  46  86 W6        29.87R
FULLERTON      PTCLDY    51  48  89 CALM      29.86R
LONG BEACH     PTCLDY    53  47  79 W8        29.87R
L.A. AP        PTCLDY    54  44  69 NW5       29.87S
L.A. DOWNTOWN  PTCLDY    54  37  52 CALM      29.86S

$$

THE INLAND EMPIRE

CITY           SKY/WX    TMP DP  RH WIND       PRES   REMARKS
CORONA         CLOUDY    48  47  96 E3        29.87R
CHINO          MOCLDY    50  46  86 S3        29.87R
ONTARIO        PTCLDY    48  47  96 S3        29.85S
SAN BERNARDINO CLOUDY    51  47  88 W6        29.86R FOG
RIVERSIDE AP   CLOUDY    50  50 100 CALM      29.87R
MORENO VALLEY    N/A     48  48 100 NW5       27.96S
MARCH ARB      MOCLDY    48  48 100 NW10      29.85R
HORSETHIEF CYN   N/A     49  46  89 N3        29.89R
PERRIS           N/A     48  48 100 N7        29.86R
HEMET EAST       N/A     47  44  90 CALM      29.92S
FRENCH VALLEY  CLOUDY    50  50 100 S6        29.86R
TEMECULA         N/A     51  51  99 SW3       29.90R

$$

SAN BERNARDINO AND RIVERSIDE COUNTY MOUNTAINS

CITY           SKY/WX    TMP DP  RH WIND       PRES   REMARKS
BIG BEAR AP    CLOUDY    30  28  93 W9G17     29.79S WCI  22
PINE COVE        N/A     33  33 100 CALM      29.86F

$$

SOUTHERN DESERT INCLUDING THE COACHELLA VALLEY

CITY           SKY/WX    TMP DP  RH WIND       PRES   REMARKS
PALM SPRINGS   MOCLDY    51  51 100 SW5       29.83R FOG
PALM DESERT      N/A     52  50  94 CALM      31.09S
THERMAL        LGT RAIN  53  52  96 SE5       29.80F FOG
BLYTHE         LGT RAIN  56  56 100 SW8       29.81S
IMPERIAL AP    CLOUDY    56  54  93 N9        29.80S
MEXICALI       CLOUDY    57  55  94 NE3       29.79F

$$

UPPER DESERT

CITY           SKY/WX    TMP DP  RH WIND       PRES   REMARKS
VICTORVILLE AP MOCLDY    39  30  70 W13       29.85R WCI  32
HESPERIA         N/A     41  33  73 N3        30.02R
PALMDALE       CLEAR     41  33  73 W14       29.86S
LANCASTER      CLEAR     40  33  76 W16       29.86S WCI  31
EDWARDS AFB    PTCLDY    43  32  66 W9        29.83R
DAGGETT        CLOUDY    47  31  53 SW16      29.83R
29 PALMS N     MOCLDY    50  41  71 W8        29.87R
NEEDLES        CLOUDY    57  50  77 SW12      29.79R

$$

REGIONAL REPORTS

CITY           SKY/WX    TMP DP  RH WIND       PRES   REMARKS
SANTA BARBARA  CLEAR     49  40  71 CALM      29.90R
SANDBERG       CLOUDY    35  33  92 N20G40    29.85S FOG     WCI  24
LAS VEGAS NV   MOCLDY    51  35  54 SW10      29.74R
PHOENIX AZ     CLOUDY    53  51  93 E6        29.82F
TIJUANA        RAIN      52  50  93 W6        29.92R VSB 1
ENSENADA NW      N/A     57  32  39 W3        29.90R

$$

OFFSHORE ISLANDS

CITY           SKY/WX    TMP DP  RH WIND       PRES   REMARKS
CATALINA ARPT  CLEAR     47  46  97 W12       29.87R
SAN NICOLAS IS CLEAR    N/A N/A N/A W21       29.92R

$$

MARINE AND OFFSHORE BUOY REPORTS

STATION/POSITION SKY/WX   TEMP    WIND        PRES    VSBY  SWELL
                          AIR SEA DIR/SP/G                  HT/PER/DIR
                          (F)     (DEG/KT/KT) (MB)    (MI)  (FT/S/D)
TANNER BANKS               55 59  320/ 23/ 27 1013.8R         5/310/15
S CLEMENTE BASIN           55 59  290/ 17/ 21 1012.6R         3/250/16
SAN NICOLAS IS.               55                N/A           5/310/15
SO. S. ROSA ISLA           53 55  310/ 27/ 31 1013.2R         5/300/15
W. S. BARBARA CH           53 55  320/ 19/ 23 1013.9R         5/320/15
M. S. BARBARA CH                  300/ 21/ 25 1013.0R
S. MONICA BASIN            55 58  300/ 17/ 23 1011.5S         2/270/14
S PEDRO CHANNEL               57                N/A           2/260/15
CMP PENDLETON NS              58                N/A           2/230/13
OCEANSIDE OFFSHR              57                N/A           2/210/13
TORREY PINES OTR              58                N/A           2/250/17
POINT LOMA SOUTH              59                N/A           3/260/15

$$





USA.gov is the U.S. government's official web portal to all federal, state and local government web resources and services.